GFSSW_925_thetae_021.txt.gz
Theta_e
309 310 310 310 310 311 311 312 312 313 313 313 314 314 314 314 313 313 315 315 314 312 313 315 314 316 319 321 321 320 322 324 323 321 321 318 318 316 315 318 316 316 316 313 312
309 309 309 308 308 308 308 309 309 310 311 312 314 314 313 314 317 316 314 312 312 313 314 316 318 317 321 321 321 322 324 323 321 320 320 319 318 318 315 316 317 316 314 308 309
311 311 310 310 310 309 309 308 308 308 309 310 312 314 313 313 318 319 315 311 312 312 313 314 316 319 321 321 321 321 322 321 319 318 317 318 318 317 317 318 319 318 317 310 309
311 311 311 311 311 311 310 309 309 308 307 308 310 313 314 317 319 315 311 311 311 313 313 315 317 319 321 323 321 321 321 319 319 317 317 317 318 317 317 319 318 318 318 314 311
311 312 311 312 312 312 311 310 309 308 308 307 309 313 315 318 318 314 312 311 311 312 314 316 319 321 321 321 319 319 320 318 317 316 317 316 316 317 318 318 317 315 313 314 311
312 311 311 311 311 311 311 311 310 309 308 307 308 313 317 316 314 313 312 311 312 313 314 315 318 318 318 319 320 319 318 318 318 318 317 316 317 316 318 318 318 317 313 313 312
313 313 311 311 311 311 311 311 310 309 308 308 310 313 316 315 313 313 311 311 310 312 314 314 316 318 319 320 317 317 318 318 319 317 317 316 317 318 317 315 316 316 315 313 313
312 311 312 311 311 311 311 310 309 308 308 310 312 316 315 314 314 311 310 310 310 311 313 312 313 317 317 316 317 318 318 319 320 318 316 316 318 318 319 318 316 316 316 314 313
311 311 311 311 311 310 310 309 308 308 311 313 316 318 315 313 314 313 311 312 311 311 312 311 315 318 316 318 320 320 320 320 320 317 317 317 318 317 317 316 316 316 317 316 314
311 311 310 310 309 309 309 308 307 311 314 313 314 317 315 315 314 312 309 311 313 314 314 315 317 318 319 319 319 319 318 319 319 319 316 317 317 317 317 316 316 315 315 316 317
312 311 310 309 308 307 308 309 314 314 314 316 317 317 313 314 312 312 310 311 313 315 316 317 318 319 318 319 319 319 319 318 318 317 317 317 317 317 317 316 317 316 316 316 316
313 312 311 310 309 310 308 311 314 310 310 312 313 312 312 315 317 315 310 313 313 315 316 317 317 318 317 318 318 318 318 318 318 318 314 316 316 316 316 316 316 316 316 315 315
313 312 311 310 310 310 310 311 308 310 314 312 313 312 312 313 314 316 311 313 314 316 316 317 316 315 316 317 317 317 317 318 318 318 314 314 316 316 316 315 314 314 315 314 314
314 312 311 310 311 313 311 308 309 309 310 311 310 312 313 313 312 311 311 313 314 315 315 316 316 315 315 316 316 317 317 318 318 318 319 314 318 318 316 316 314 314 313 314 313
316 313 312 310 310 314 308 308 309 307 314 310 310 310 313 312 311 310 307 310 314 314 315 315 316 315 316 316 316 316 312 315 316 317 318 317 318 317 313 314 313 312 313 315 315
317 315 312 312 311 311 308 306 309 309 312 310 312 313 315 313 312 309 310 309 311 313 314 314 310 313 315 310 312 311 312 312 312 315 319 317 318 317 316 313 314 314 314 315 313
319 316 312 312 313 310 308 310 309 309 309 313 313 313 314 316 314 311 311 311 314 315 315 316 315 312 310 313 310 311 315 319 324 324 322 318 317 317 316 313 313 313 314 313 311
321 317 314 312 312 310 308 310 309 310 313 311 312 314 316 315 315 313 313 314 313 314 315 318 318 316 311 315 318 313 316 322 326 322 321 317 318 316 315 314 313 313 313 311 310
322 317 313 312 311 310 309 311 313 313 311 312 313 312 313 314 314 316 315 315 315 314 316 316 316 309 311 310 315 314 314 316 322 321 322 316 316 317 314 313 312 311 310 310 309
317 315 314 313 313 308 310 312 317 313 311 309 311 312 312 312 313 314 315 315 315 315 314 315 316 313 304 306 307 311 311 316 317 323 320 316 318 319 317 313 312 311 310 311 311
317 316 314 312 309 310 310 310 316 314 310 307 309 311 312 312 313 313 312 314 315 315 313 314 316 313 306 309 313 308 311 310 311 318 320 320 318 312 313 313 313 312 310 311 313
316 317 311 311 312 310 309 311 312 313 308 307 307 308 310 310 310 311 313 313 313 313 312 313 316 316 315 312 308 311 313 313 315 316 314 315 317 312 313 312 312 312 311 311 311
316 315 308 311 317 310 311 312 312 315 313 308 308 307 308 307 309 310 311 311 310 312 313 312 315 317 315 311 305 309 311 310 313 313 315 318 317 312 312 312 311 310 310 310 309
316 315 307 307 313 317 313 315 315 314 314 313 309 309 310 310 310 310 312 311 311 310 310 311 315 316 314 314 312 312 311 311 312 314 314 314 314 313 313 313 313 313 313 312 310
312 316 308 309 309 313 314 314 316 316 314 312 313 310 311 314 313 311 311 311 310 308 309 311 313 313 313 313 313 311 314 314 311 311 313 313 313 313 313 313 313 312 311 310 310
307 314 308 311 313 311 312 314 315 316 316 316 315 314 311 313 314 318 316 313 314 308 309 310 313 313 314 313 313 312 312 313 313 313 313 311 311 311 311 311 311 311 311 311 310
300 300 299 305 310 312 312 313 314 315 315 316 316 314 315 312 311 313 314 315 314 312 310 310 312 313 315 314 314 315 314 314 313 313 312 313 313 313 313 313 312 312 312 311 311

GFSSW_925_thetae_024.txt.gz
Theta_e
309 309 308 308 308 308 308 308 308 309 310 311 313 314 313 314 314 313 316 317 317 315 313 316 315 316 318 322 320 320 321 323 324 322 321 317 317 316 314 316 317 315 316 313 312
310 310 310 310 310 310 310 309 308 308 308 309 311 313 313 313 314 318 316 314 313 313 315 316 318 318 319 322 321 321 325 326 320 319 319 318 316 316 315 315 315 315 312 311 310
311 311 311 311 311 311 311 310 309 308 308 308 308 311 313 313 320 319 318 315 312 313 314 315 316 319 320 322 321 321 322 321 320 319 317 317 317 316 315 316 315 314 313 309 308
311 311 311 311 312 312 312 311 311 310 309 308 307 309 313 317 319 316 314 313 312 312 314 315 317 319 320 323 321 320 320 320 320 317 317 317 317 316 315 315 317 316 316 309 308
313 312 311 311 311 311 311 311 311 310 309 308 307 308 315 319 318 315 312 311 311 313 314 316 317 320 322 320 321 319 319 319 318 317 316 316 315 315 314 314 314 314 313 309 309
314 313 312 311 311 311 311 311 311 310 310 308 308 309 316 316 315 314 312 311 313 313 314 315 317 317 318 317 318 318 317 317 317 316 316 316 316 316 315 313 314 314 310 310 309
312 311 311 311 311 311 311 311 311 310 309 308 309 311 317 315 314 313 313 311 311 313 314 315 316 317 319 320 318 317 316 316 316 316 316 317 315 315 314 315 314 313 312 310 309
313 312 310 309 310 310 310 311 310 309 308 308 311 315 316 315 314 312 311 311 310 311 313 314 314 316 318 316 316 316 317 318 319 317 315 315 316 317 315 314 313 312 311 311 310
314 313 311 310 307 307 309 311 310 308 310 312 314 319 317 313 314 314 312 312 311 312 313 312 315 317 317 316 317 318 318 318 320 317 315 314 316 317 316 317 314 312 311 311 311
314 313 312 311 310 306 306 309 309 308 315 315 316 317 315 316 314 313 311 312 313 313 314 314 315 316 316 316 317 319 318 317 317 316 315 315 315 314 314 314 312 311 310 311 311
315 314 313 312 311 308 307 308 314 317 314 317 317 316 315 314 313 312 310 312 313 314 314 315 315 315 315 316 317 317 317 317 317 317 316 315 316 315 315 313 312 313 313 312 311
316 315 313 313 311 308 312 312 313 311 312 311 312 314 315 315 317 315 310 311 313 314 313 316 316 316 316 316 316 316 316 316 316 315 315 314 315 315 314 314 314 313 313 313 311
317 316 314 314 309 314 312 312 309 312 314 311 311 312 312 314 314 315 310 312 313 314 314 314 316 316 316 316 316 315 315 315 315 315 313 313 314 313 312 313 313 313 313 312 309
318 317 315 314 313 312 312 309 310 310 311 311 313 313 313 313 312 313 311 313 313 314 314 314 314 315 314 314 314 314 314 315 315 315 316 314 315 314 314 313 311 311 310 309 308
321 318 316 313 312 313 310 308 308 311 312 314 310 310 313 312 311 310 307 310 313 314 315 314 314 314 315 314 313 315 313 313 314 316 316 316 315 314 313 312 312 311 311 310 309
323 320 316 313 313 312 309 307 310 309 310 312 313 313 314 313 312 309 309 309 311 312 311 312 311 313 314 311 312 310 313 312 312 312 314 313 314 313 313 313 312 310 309 309 310
323 322 318 314 315 312 309 311 309 309 311 313 314 313 314 314 314 310 311 310 311 312 312 312 312 312 310 313 310 311 315 316 318 315 317 313 314 315 314 310 309 309 309 308 308
321 321 319 316 314 313 309 312 311 317 314 313 312 314 315 313 315 313 312 312 310 311 312 316 317 313 309 312 314 311 314 317 317 315 315 313 315 314 313 311 308 308 309 308 307
320 318 315 316 313 311 311 312 319 322 318 316 314 312 313 313 314 315 312 313 312 311 313 313 313 310 310 311 312 313 313 314 315 309 314 315 313 312 312 310 309 309 307 306 306
317 316 314 316 314 310 311 316 317 320 319 315 315 311 312 312 313 314 314 314 313 312 312 314 315 311 306 306 307 309 310 314 314 311 312 312 310 311 313 312 309 309 307 306 306
316 319 315 315 312 311 313 315 318 317 317 318 318 312 309 308 309 310 312 312 313 314 312 313 314 311 306 307 310 307 309 310 311 316 313 313 312 308 312 313 310 308 308 306 306
316 318 311 311 313 312 313 314 314 316 314 312 309 311 315 315 312 312 311 310 308 311 313 313 315 316 313 310 307 309 311 311 313 313 311 313 314 312 308 308 308 307 307 306 307
315 316 308 311 318 315 308 313 313 315 315 315 315 313 312 311 313 314 314 312 310 310 313 312 313 317 314 311 305 307 309 310 311 311 314 315 314 311 311 308 307 306 306 306 305
309 315 309 308 314 316 317 313 314 313 314 314 315 313 313 312 311 312 313 311 310 312 312 312 313 314 316 314 312 311 310 308 310 312 313 313 312 311 311 311 310 310 307 305 304
306 311 310 311 309 313 315 316 316 315 314 315 316 315 313 315 316 314 312 311 311 311 310 309 313 313 313 313 312 313 313 312 312 312 311 310 310 310 311 310 310 310 309 307 307
303 306 302 305 306 308 310 312 314 315 315 315 316 316 314 315 316 316 313 313 314 310 312 310 312 312 313 312 312 312 311 311 311 311 313 312 313 311 309 309 309 309 309 309 308
298 300 300 301 303 305 308 310 311 311 311 313 314 315 315 315 312 313 314 314 314 315 311 310 310 311 314 312 312 314 313 312 312 311 311 312 311 311 311 311 311 310 310 310 309

GFSSW_925_thetae_030.txt.gz
Theta_e
310 310 310 311 311 311 311 310 310 309 308 307 307 308 311 313 312 313 313 313 315 315 314 315 316 315 315 316 316 312 311 314 315 318 317 314 315 314 312 314 314 312 311 311 312
310 310 311 311 311 311 311 311 311 311 310 309 308 307 308 312 312 313 313 314 315 315 314 314 313 313 313 317 316 315 311 312 313 316 316 315 313 314 314 313 313 313 309 309 310
311 311 311 311 311 311 311 311 311 311 311 310 309 308 307 312 315 314 317 314 315 314 313 315 314 313 315 315 316 315 315 315 316 316 314 314 314 312 313 312 310 311 310 306 306
310 310 311 311 311 311 311 311 311 311 311 310 310 308 307 312 307 316 314 317 314 312 314 313 313 315 315 316 315 317 314 314 316 316 315 314 313 313 310 313 312 308 308 305 305
313 313 311 308 308 309 311 311 312 311 311 311 310 308 309 315 312 311 313 314 313 311 313 311 313 314 316 314 315 316 316 315 314 313 312 313 313 312 310 308 308 308 306 306 306
314 314 313 312 311 307 305 306 310 311 311 311 309 308 311 309 311 313 315 312 311 312 312 312 311 312 314 315 314 313 315 314 313 313 312 314 312 312 312 310 308 308 307 305 306
314 314 314 314 313 310 309 306 305 307 310 310 309 309 317 308 311 313 313 311 310 311 311 311 312 314 313 315 314 314 314 312 313 312 312 311 313 312 313 311 310 308 306 306 306
315 315 315 315 315 311 309 309 306 305 307 309 309 312 308 311 313 313 312 311 310 312 311 313 313 313 314 312 311 314 313 313 312 311 312 312 314 312 310 310 310 308 306 305 306
316 316 316 316 317 311 307 308 307 306 307 310 313 315 312 313 312 312 312 311 310 310 311 312 313 311 314 311 310 309 309 310 311 311 313 311 313 312 310 308 309 307 307 306 307
317 317 317 317 317 311 309 309 309 310 314 315 318 315 311 312 313 313 311 311 310 311 310 311 309 310 311 309 310 309 311 311 312 312 312 311 312 313 311 309 307 307 305 306 308
318 318 318 318 318 312 309 311 307 306 312 309 310 310 311 313 313 311 311 310 311 310 308 310 309 309 310 311 310 309 309 310 310 311 313 312 313 313 313 310 308 310 310 309 306
321 320 320 319 318 314 311 310 309 309 306 307 306 308 311 313 313 311 310 309 310 311 309 310 309 309 309 308 310 311 312 311 311 311 310 312 313 312 312 313 313 310 310 310 311
322 321 321 321 318 315 311 309 310 311 310 308 307 306 306 311 310 311 308 308 309 310 309 311 310 310 309 310 311 310 311 311 311 311 308 309 311 309 309 311 312 312 311 311 311
324 323 322 322 316 316 311 311 308 310 303 306 309 308 310 310 309 308 308 309 309 310 308 309 310 310 310 311 311 312 310 311 312 311 313 311 313 310 309 309 309 310 310 310 309
325 324 323 321 320 316 315 310 308 306 317 310 309 310 310 307 308 308 307 309 310 311 310 309 311 310 310 311 310 313 310 309 309 309 310 310 311 311 310 310 310 311 310 310 310
323 323 322 318 318 320 316 308 308 309 316 309 308 310 310 310 310 307 308 307 308 309 308 309 308 309 309 310 308 309 311 310 307 308 313 311 311 311 309 311 310 310 310 310 310
320 320 320 319 316 316 311 309 320 320 313 312 309 311 310 310 310 308 308 309 309 309 307 307 308 308 309 310 309 310 310 311 310 311 314 308 310 312 310 309 308 310 310 309 309
317 319 319 320 318 314 311 316 323 321 312 313 311 310 310 310 310 309 308 308 306 307 306 308 311 308 307 310 310 309 310 312 310 313 313 306 311 313 309 309 308 307 308 308 307
310 315 317 319 318 313 316 322 325 323 316 316 318 317 312 310 309 310 308 308 307 306 309 309 311 308 307 308 309 309 310 311 310 296 307 311 309 310 308 308 307 307 307 304 302
310 313 314 316 318 313 316 323 322 318 319 318 323 319 316 314 313 312 311 308 309 306 307 310 311 308 306 306 307 308 308 311 310 310 310 310 310 313 311 310 307 305 304 304 303
309 313 313 315 313 312 318 318 318 316 317 319 321 322 318 319 316 318 315 312 308 309 307 309 311 313 307 307 310 307 308 308 310 314 317 317 315 314 313 308 307 307 304 303 301
309 312 312 313 314 314 318 316 315 316 315 317 316 319 320 319 321 321 322 318 309 309 310 312 314 316 315 312 306 307 309 310 313 314 312 314 315 313 312 312 306 304 303 302 303
309 311 312 312 316 317 314 315 315 315 316 316 317 315 315 317 318 316 316 315 314 312 314 313 316 319 317 314 312 311 311 309 311 311 314 315 314 312 311 310 307 304 307 308 306
302 307 311 310 312 314 315 315 315 312 313 313 315 314 315 316 315 316 316 314 311 312 315 314 316 318 320 317 312 312 308 307 309 312 313 312 311 310 310 310 310 310 310 309 307
298 300 304 309 311 311 312 312 313 312 312 312 313 314 314 315 316 317 315 314 313 312 311 313 317 315 314 314 314 316 316 314 314 313 314 313 312 311 310 311 311 310 309 308 307
297 299 298 300 300 304 308 310 310 310 311 311 312 306 306 308 309 308 305 306 307 305 305 309 314 314 316 314 313 314 313 313 313 314 314 314 314 312 312 312 312 312 311 311 311
295 296 298 296 298 298 299 303 304 301 302 304 299 298 299 300 297 297 298 300 302 303 303 306 309 312 314 312 313 316 314 313 313 312 313 316 314 312 312 311 311 310 310 308 303

GFSSW_925_thetae_036.txt.gz
Theta_e
310 310 310 310 310 310 310 310 310 310 310 310 310 309 308 307 309 311 311 312 314 314 315 312 313 315 314 314 312 308 311 312 313 313 314 312 313 311 310 312 311 310 310 309 310
310 310 310 310 310 310 310 311 311 311 311 310 310 310 309 308 310 312 311 311 313 313 313 313 312 312 311 314 313 312 308 310 309 310 313 312 312 313 313 312 311 311 309 309 310
310 310 310 310 309 309 309 310 310 311 311 311 311 310 309 308 309 308 316 313 313 314 314 313 313 312 314 314 315 312 314 310 311 309 312 313 312 311 311 311 309 311 310 306 308
311 312 311 311 311 310 309 308 307 309 311 311 311 310 309 310 309 311 314 314 314 314 314 312 311 313 313 314 313 316 313 312 313 313 314 313 311 312 309 314 310 307 308 306 305
313 313 313 313 313 314 313 310 309 307 306 308 311 310 309 309 308 312 311 314 314 313 313 309 311 311 313 311 312 314 313 313 312 311 311 311 311 311 310 309 307 306 305 305 305
314 314 314 315 316 316 316 311 309 308 309 305 306 310 310 308 311 311 312 314 314 312 311 310 309 309 311 312 312 311 312 310 310 311 311 312 313 310 310 308 308 306 305 304 304
315 315 316 317 317 318 317 311 309 308 309 308 304 309 311 308 311 311 313 312 313 312 308 310 311 311 311 312 310 312 312 308 308 309 310 309 311 310 311 309 308 306 304 304 303
316 317 317 318 319 320 315 316 311 308 308 308 305 310 306 308 310 311 311 310 310 311 311 311 311 310 311 310 309 310 309 309 308 308 310 310 310 311 307 307 307 305 304 303 304
318 318 319 320 320 321 317 313 310 309 308 307 310 310 306 309 311 311 311 309 309 310 310 311 310 309 310 307 308 306 307 306 306 307 310 309 310 308 309 307 307 307 306 306 305
320 320 321 321 322 320 319 310 312 314 314 316 315 310 308 310 311 310 309 309 309 308 309 309 306 307 306 306 308 307 306 306 306 308 307 308 308 308 309 308 308 309 308 308 309
321 321 321 321 322 320 317 309 307 306 309 309 311 307 309 310 311 309 309 310 308 307 308 308 307 308 309 307 308 306 305 305 307 307 309 308 308 308 308 308 308 308 308 308 308
322 322 322 322 323 320 313 308 307 306 308 306 304 308 310 311 311 309 309 309 309 309 306 308 307 307 307 306 308 307 308 308 308 308 306 307 308 308 308 308 309 309 309 309 308
324 324 323 324 323 318 311 309 308 310 308 308 306 305 306 309 308 310 307 307 309 308 307 309 309 308 307 307 307 306 307 308 307 307 306 306 308 308 307 307 308 309 309 309 308
323 323 323 323 322 319 313 311 307 309 313 312 307 307 308 308 307 306 307 308 308 309 307 307 307 308 307 308 306 309 306 307 308 308 309 307 312 308 308 308 307 308 307 305 304
324 324 324 322 321 319 314 312 307 305 327 314 307 308 308 306 307 307 306 308 308 307 306 308 308 308 308 308 307 309 308 308 308 308 308 308 308 311 307 307 307 307 305 305 304
322 321 321 322 321 319 316 313 307 319 327 317 307 309 309 309 308 306 307 306 306 308 306 306 306 306 307 307 306 308 309 307 304 306 311 309 309 311 307 307 308 308 306 305 304
318 319 318 320 318 318 318 314 323 326 318 316 309 309 308 307 309 307 308 308 307 309 307 306 307 307 306 308 307 308 308 310 311 310 315 307 308 313 308 306 309 308 307 305 303
310 313 316 318 318 316 317 321 323 323 322 316 312 309 313 309 311 308 307 306 305 306 304 308 316 306 305 308 309 307 308 310 312 314 318 307 310 313 307 307 306 305 303 303 302
305 307 310 313 317 315 318 324 324 323 319 320 319 321 320 314 312 311 307 308 306 305 311 307 308 306 305 306 307 307 309 308 311 300 305 311 310 312 309 307 305 304 304 303 302
304 309 311 309 314 315 319 321 321 319 317 318 322 320 319 317 312 309 310 307 308 304 307 310 319 309 306 305 305 307 306 309 307 314 317 313 313 313 312 310 308 306 305 304 303
304 306 307 312 315 315 317 317 318 316 316 320 321 321 319 320 315 318 316 313 308 308 305 309 314 316 312 307 308 309 308 308 308 311 316 317 315 313 312 310 307 307 305 304 303
304 304 308 313 313 313 313 313 313 315 315 316 318 319 319 319 320 319 319 318 310 313 315 309 316 319 316 312 308 310 313 313 316 315 312 314 315 311 311 310 309 309 309 306 302
303 304 308 312 311 312 311 312 313 313 313 315 315 315 315 316 317 316 316 313 311 312 314 313 315 317 316 310 307 310 309 310 311 312 316 317 315 311 311 311 309 308 307 302 299
298 300 303 309 309 310 310 311 311 311 313 313 314 313 314 315 314 315 313 312 306 309 310 312 314 315 317 314 311 314 313 310 312 314 316 316 316 313 312 310 302 301 300 297 296
295 297 299 305 304 306 309 308 309 309 310 310 311 312 312 314 313 313 309 304 303 303 305 307 310 312 310 307 307 307 307 306 307 307 309 308 307 308 297 296 295 297 295 294 293
294 295 296 298 298 301 302 305 305 306 307 308 309 306 306 308 305 303 299 301 300 298 298 299 300 301 301 301 301 300 299 298 299 300 301 303 306 296 293 292 296 294 292 291 291
292 294 295 294 296 296 296 299 296 297 298 299 296 297 297 299 295 295 295 296 296 296 295 296 295 292 299 298 294 293 294 294 295 296 298 301 295 295 293 292 293 293 291 290 290

GFSSW_925_thetae_042.txt.gz
Theta_e
309 310 310 310 310 310 310 310 310 310 310 310 310 310 310 310 310 310 312 311 312 313 314 313 314 314 315 318 316 315 320 320 319 319 318 317 317 315 314 317 316 317 318 317 314
310 310 310 310 309 309 309 309 309 309 310 310 311 311 311 311 310 313 312 310 312 313 313 314 315 315 318 318 319 320 320 318 318 317 317 316 316 317 316 317 318 317 316 313 313
311 311 311 310 310 310 310 310 309 308 308 307 308 310 311 311 313 311 314 311 312 313 313 312 314 316 317 318 319 319 319 318 316 315 314 315 316 316 317 317 318 318 317 317 314
313 313 313 313 313 313 313 313 312 311 310 309 308 305 310 311 314 309 314 313 312 313 312 313 315 316 318 318 318 319 318 318 317 315 316 316 316 316 316 317 317 317 317 316 316
314 314 314 315 316 317 317 316 315 313 312 310 309 307 309 311 314 311 312 313 312 312 313 315 315 316 317 316 315 318 317 317 317 316 316 316 317 317 317 316 316 316 314 314 315
314 315 316 317 318 319 319 319 317 317 315 312 308 307 310 309 309 311 311 312 313 312 312 313 315 315 315 315 315 314 315 315 314 315 315 315 315 313 315 315 315 314 314 314 314
315 316 317 319 320 321 321 320 319 317 316 312 308 307 310 313 309 311 313 314 313 312 312 311 311 314 314 314 313 314 314 315 314 313 314 314 315 315 315 314 314 314 314 314 313
317 318 320 321 321 322 322 320 319 314 312 309 308 308 310 307 308 309 311 311 312 312 311 310 310 313 313 312 313 313 312 314 314 311 312 314 314 315 314 312 313 314 314 314 314
318 320 320 321 322 323 322 319 313 312 310 307 310 308 310 308 309 309 310 310 309 309 309 309 311 313 312 313 314 313 314 314 313 311 312 314 314 315 313 312 313 313 314 314 314
319 320 321 322 322 323 321 316 310 313 313 313 311 310 309 310 310 309 309 308 310 311 312 312 312 313 311 313 315 316 314 313 313 313 311 311 312 312 313 312 312 313 313 313 313
320 321 322 322 323 322 320 311 316 317 312 316 315 310 310 309 310 308 307 309 310 311 313 312 313 314 315 314 314 313 313 313 313 313 312 313 313 313 313 312 313 313 313 314 313
321 322 323 323 323 321 317 311 309 309 317 312 311 310 308 310 313 309 308 311 311 313 310 312 314 314 312 310 311 312 313 314 314 313 310 313 312 312 313 313 313 313 314 313 314
321 321 322 322 322 320 315 312 309 308 316 315 310 309 309 310 314 312 309 310 312 312 311 315 317 311 311 312 312 313 312 313 314 313 311 311 315 314 315 312 313 313 312 312 311
321 321 320 321 322 319 314 315 308 308 323 319 311 308 307 307 308 306 306 309 310 313 311 312 311 310 310 311 312 314 313 311 311 312 316 311 318 317 317 315 315 314 313 311 310
323 323 322 321 321 319 316 312 308 306 329 314 308 308 308 308 309 308 305 309 311 311 311 314 310 310 312 312 310 313 309 310 310 312 312 315 314 318 312 315 314 312 310 310 309
320 321 321 321 321 321 317 314 311 324 330 319 308 310 310 309 308 308 309 308 307 309 309 310 307 309 311 309 309 308 310 310 310 311 318 318 316 318 316 313 313 311 310 310 309
319 320 320 320 320 320 318 318 325 327 322 321 312 309 309 309 310 309 311 311 318 320 318 316 316 310 307 310 308 309 312 322 325 322 323 312 316 316 316 313 311 311 310 308 306
316 316 317 318 319 317 318 321 326 322 322 320 313 311 319 312 314 311 312 318 311 315 317 317 318 311 309 312 317 315 315 322 328 325 324 321 322 320 315 312 309 309 306 305 303
308 307 308 312 318 316 318 325 323 322 320 321 320 321 322 317 317 316 316 319 319 311 318 319 318 310 307 309 311 312 312 312 315 320 320 319 318 316 312 311 309 308 307 305 303
306 306 308 309 316 316 318 318 320 319 318 319 323 321 322 321 320 317 318 312 313 310 309 316 321 318 313 306 307 310 310 315 316 322 323 318 317 315 314 312 309 308 305 303 301
304 307 305 311 315 315 317 316 316 316 318 319 319 320 318 319 318 317 316 316 314 308 309 315 316 317 313 312 316 310 310 311 313 319 321 318 315 313 312 308 306 305 301 299 298
305 307 307 312 315 314 314 312 311 313 312 317 316 318 318 317 316 315 316 315 313 313 315 314 316 318 316 314 312 313 314 316 319 318 315 316 317 313 310 304 302 300 297 296 294
306 304 307 311 312 313 311 312 311 311 311 311 313 315 315 314 314 314 312 310 310 313 315 314 317 319 318 313 310 314 314 313 315 314 318 320 319 311 309 307 298 298 295 294 293
301 303 305 308 309 308 309 309 310 308 310 310 311 312 312 311 311 312 312 311 307 306 306 310 311 316 318 315 313 314 313 313 312 314 314 313 312 309 306 305 297 295 294 293 293
298 300 301 307 307 308 306 306 307 307 307 306 308 309 309 309 308 309 308 305 303 300 302 306 310 309 309 309 305 306 306 304 305 306 307 305 305 304 303 297 294 292 290 291 293
297 298 298 299 300 303 305 306 305 305 304 304 304 304 303 306 306 306 302 303 304 299 299 299 305 302 302 302 302 302 301 301 300 300 300 300 300 297 295 293 292 291 289 290 291
292 293 296 296 297 300 301 303 300 301 296 298 298 298 298 299 299 298 298 297 298 299 298 298 300 300 301 299 297 298 299 299 298 298 297 297 297 295 292 290 290 290 289 290 291